Weather History for KMGE - January, 2014

Change the Weather History Date:

Sunday, January 5, 2014

  Actual Average Record
Temperature  
Mean Temperature 40 °F -  
Max Temperature 49 °F 50 °F 66 °F (2004)
Min Temperature 32 °F 33 °F 14 °F (1999)
Degree Days  
Heating Degree Days 25    
Moisture  
Dew Point 39 °F    
Average Humidity 96    
Maximum Humidity 100    
Minimum Humidity 81    
Precipitation  
Precipitation 0.07 in - - ()
Sea Level Pressure  
Sea Level Pressure 30.02 in    
Wind  
Wind Speed 5 mph (ESE)    
Max Wind Speed 26 mph    
Max Gust Speed 32 mph    
Visibility 5 miles    
Events Fog , Rain    
Averages and records for this station are not official NWS values.
T = Trace of Precipitation, MM = Missing Value Source: NWS Daily Summary

Daily Weather History Graph

Daily Weather History Graph

Search for Another Location

Airport or City:

Trip Planner

Search our weather history database for the weather conditions in past years. The results will help you decide how hot, cold, wet, or windy it might be!

Date:

Astronomy

Jan. 05, 2014 Rise Set
Actual Time 7:43 AM EST 5:43 PM EST
Civil Twilight 7:16 AM EST 6:10 PM EST
Nautical Twilight 6:45 AM EST 6:41 PM EST
Astronomical Twilight 6:15 AM EST 7:12 PM EST
Moon 10:39 AM EST (1/5) 10:54 PM EST (1/5)
Length of Visible Light 10h 54m
Length of Day
9h 59m
Waxing Crescent, 24% of the Moon is Illuminated
Jan 5
Waxing Crescent
Jan 7
First Quarter
Jan 15
Full
Jan 24
Last Quarter
Jan 30
New

Hourly Weather History & Observations

Time (EST) Temp. Windchill Dew Point Humidity Pressure Visibility Wind Dir Wind Speed Gust Speed Precip Events Conditions
12:18 AM 33.8 °F 30.8 °F 30.2 °F 87% 30.19 in 10.0 mi East 3.5 mph - N/A   Overcast
12:28 AM 33.8 °F - 32.0 °F 93% 30.19 in 10.0 mi Variable 2.3 mph - N/A   Overcast
12:38 AM 33.8 °F 28.6 °F 32.0 °F 93% 30.18 in 10.0 mi East 5.8 mph - N/A   Overcast
12:58 AM 34.2 °F 30.0 °F 30.7 °F 87% 30.21 in 10.0 mi East 4.6 mph - N/A   Overcast
1:13 AM 33.8 °F 27.7 °F 32.0 °F 93% 30.17 in 10.0 mi East 6.9 mph - N/A   Overcast
1:48 AM 33.8 °F 30.8 °F 32.0 °F 93% 30.16 in 10.0 mi Variable 3.5 mph - N/A   Overcast
1:53 AM 33.8 °F 29.6 °F 32.0 °F 93% 30.17 in 10.0 mi Variable 4.6 mph - N/A   Overcast
1:58 AM 34.2 °F - 30.9 °F 88% 30.20 in 10.0 mi Variable 2.3 mph - N/A   Overcast
2:08 AM 33.8 °F 29.6 °F 32.0 °F 93% 30.16 in 10.0 mi East 4.6 mph - N/A   Overcast
2:58 AM 34.0 °F - 31.5 °F 90% 30.19 in 10.0 mi Variable 2.3 mph - N/A   Overcast
3:23 AM 33.8 °F 30.8 °F 32.0 °F 93% 30.16 in 9.0 mi Variable 3.5 mph - N/A   Overcast
3:28 AM 33.8 °F 30.8 °F 32.0 °F 93% 30.15 in 7.0 mi East 3.5 mph - N/A   Light Drizzle
3:33 AM 33.8 °F 29.6 °F 32.0 °F 93% 30.16 in 6.0 mi East 4.6 mph - N/A   Light Drizzle
3:43 AM 33.8 °F 28.6 °F 32.0 °F 93% 30.15 in 7.0 mi East 5.8 mph - N/A   Light Drizzle
3:49 AM 33.8 °F 29.6 °F 32.0 °F 93% 30.15 in 7.0 mi East 4.6 mph - N/A   Overcast
3:58 AM 33.6 °F 29.4 °F 32.2 °F 94% 30.17 in 6.0 mi East 4.6 mph - 0.00 in   Overcast
4:08 AM 32.0 °F 28.7 °F 32.0 °F 100% 30.14 in 4.0 mi East 3.5 mph - N/A   Overcast
4:13 AM 32.0 °F - 32.0 °F 100% 30.14 in 4.0 mi Variable 2.3 mph - N/A   Overcast
4:43 AM 32.0 °F 28.7 °F 32.0 °F 100% 30.14 in 4.0 mi Variable 3.5 mph - N/A   Overcast
4:58 AM 33.6 °F 30.6 °F 32.9 °F 97% 30.16 in 4.0 mi East 3.5 mph - N/A   Overcast
5:18 AM 32.0 °F 28.7 °F 32.0 °F 100% 30.13 in 4.0 mi East 3.5 mph - N/A   Overcast
5:43 AM 33.8 °F - 32.0 °F 93% 30.13 in 3.0 mi Variable 2.3 mph - N/A   Overcast
5:58 AM 34.0 °F 31.0 °F 33.6 °F 99% 30.16 in 3.0 mi East 3.5 mph - N/A   Overcast
6:08 AM 33.8 °F 30.8 °F 33.8 °F 100% 30.12 in 2.5 mi East 3.5 mph - N/A   Overcast
6:18 AM 33.8 °F - 33.8 °F 100% 30.11 in 2.0 mi East 2.3 mph - N/A   Overcast
6:28 AM 33.8 °F 29.6 °F 33.8 °F 100% 30.12 in 1.8 mi East 4.6 mph - N/A   Overcast
6:44 AM 33.8 °F 30.8 °F 33.8 °F 100% 30.11 in 0.8 mi East 3.5 mph - N/A   Light Drizzle
6:58 AM 34.2 °F 31.2 °F 33.8 °F 99% 30.14 in 0.8 mi East 3.5 mph - N/A   Light Drizzle
7:40 AM 33.8 °F 29.6 °F 33.8 °F 100% 30.11 in 0.4 mi East 4.6 mph - N/A Fog Fog
7:58 AM 34.2 °F - 33.8 °F 99% 30.14 in 0.4 mi ENE 2.3 mph - N/A Fog Fog
8:36 AM 35.6 °F - 35.6 °F 100% 30.11 in 0.5 mi East 2.3 mph - N/A Fog Fog
8:58 AM 35.6 °F 29.9 °F 35.4 °F 99% 30.14 in 0.5 mi East 6.9 mph - N/A Fog Fog
9:12 AM 35.6 °F 30.7 °F 35.6 °F 100% 30.11 in 0.4 mi East 5.8 mph - N/A Fog Fog
9:53 AM 37.4 °F 31.4 °F 35.6 °F 93% 30.11 in 0.3 mi East 8.1 mph - N/A Fog Fog
9:58 AM 36.5 °F 29.7 °F 36.3 °F 99% 30.13 in 0.3 mi East 9.2 mph - N/A Fog Fog
10:36 AM 37.4 °F 30.8 °F 37.4 °F 100% 30.09 in 0.5 mi ESE 9.2 mph - N/A Fog Fog
10:51 AM 39.2 °F 33.6 °F 37.4 °F 93% 30.09 in 0.8 mi ESE 8.1 mph - N/A   Mist
10:58 AM 39.2 °F 35.0 °F 39.2 °F 100% 30.11 in 0.8 mi ESE 5.8 mph - N/A   Overcast
11:00 AM 39.2 °F 35.0 °F 37.4 °F 93% 30.08 in 1.2 mi SE 5.8 mph - N/A   Overcast
11:34 AM 39.2 °F 34.2 °F 39.2 °F 100% 30.07 in 1.5 mi ESE 6.9 mph - N/A   Overcast
11:55 AM 39.2 °F 35.0 °F 39.2 °F 100% 30.04 in 2.0 mi East 5.8 mph - N/A   Overcast
11:58 AM 39.6 °F 36.3 °F 39.2 °F 99% 30.07 in 2.0 mi East 4.6 mph - N/A   Overcast
12:11 PM 39.2 °F 35.0 °F 39.2 °F 100% 30.02 in 2.5 mi East 5.8 mph - N/A   Overcast
12:18 PM 41.0 °F 37.1 °F 39.2 °F 93% 30.01 in 3.0 mi East 5.8 mph - N/A   Overcast
12:24 PM 41.0 °F 37.1 °F 41.0 °F 100% 30.00 in 3.0 mi East 5.8 mph - N/A   Overcast
12:54 PM 41.0 °F 35.8 °F 41.0 °F 100% 29.98 in 4.0 mi East 8.1 mph - N/A   Overcast
12:58 PM 41.7 °F 37.3 °F 41.4 °F 99% 30.00 in 4.0 mi East 6.9 mph - N/A   Overcast
1:23 PM 42.8 °F 39.3 °F 41.0 °F 93% 29.95 in 5.0 mi Variable 5.8 mph - N/A   Overcast
1:58 PM 44.4 °F 40.0 °F 41.5 °F 90% 29.96 in 6.0 mi ESE 8.1 mph - N/A   Overcast
2:58 PM 45.9 °F 41.7 °F 41.4 °F 84% 29.95 in 10.0 mi ESE 8.1 mph - N/A   Overcast
3:58 PM 46.4 °F 42.4 °F 41.5 °F 83% 29.93 in 10.0 mi SE 8.1 mph - N/A   Overcast
4:38 PM 46.4 °F 42.4 °F 41.0 °F 81% 29.92 in 10.0 mi ESE 8.1 mph - N/A   Overcast
4:48 PM 44.6 °F 40.2 °F 41.0 °F 87% 29.92 in 7.0 mi ESE 8.1 mph - N/A Rain Light Rain
4:57 PM 44.6 °F 40.2 °F 42.8 °F 93% 29.92 in 10.0 mi ESE 8.1 mph - N/A   Overcast
4:58 PM 44.6 °F 40.2 °F 42.8 °F 93% 29.94 in 10.0 mi ESE 8.1 mph - 0.00 in   Overcast
5:01 PM 44.6 °F 40.7 °F 42.8 °F 93% 29.92 in 7.0 mi ESE 6.9 mph - N/A   Light Drizzle
5:31 PM 44.6 °F 42.2 °F 42.8 °F 93% 29.93 in 3.0 mi SE 4.6 mph - N/A   Light Drizzle
5:43 PM 44.6 °F 41.4 °F 42.8 °F 93% 29.92 in 4.0 mi ESE 5.8 mph - N/A   Overcast
5:48 PM 44.6 °F 40.7 °F 42.8 °F 93% 29.92 in 4.0 mi ESE 6.9 mph - N/A   Overcast
5:53 PM 44.6 °F 40.2 °F 42.8 °F 93% 29.91 in 5.0 mi ESE 8.1 mph - N/A   Overcast
5:58 PM 43.7 °F 39.1 °F 43.0 °F 97% 29.93 in 5.0 mi ESE 8.1 mph - 0.01 in   Overcast
6:05 PM 42.8 °F 36.6 °F 42.8 °F 100% 29.90 in 6.0 mi ESE 11.5 mph - N/A   Overcast
6:36 PM 42.8 °F 38.0 °F 42.8 °F 100% 29.88 in 7.0 mi East 8.1 mph - N/A   Overcast
6:58 PM 43.2 °F 37.4 °F 42.8 °F 99% 29.89 in 7.0 mi ESE 10.4 mph - N/A   Overcast
7:58 PM 43.7 °F 39.1 °F 43.5 °F 99% 29.87 in 7.0 mi ESE 8.1 mph - N/A   Overcast
8:58 PM 45.9 °F 40.4 °F 45.7 °F 99% 29.85 in 10.0 mi SE 11.5 mph - N/A   Overcast
9:03 PM 46.4 °F 41.1 °F 46.4 °F 100% 29.82 in 10.0 mi SSE 11.5 mph - N/A   Overcast
9:58 PM 47.5 °F - 47.3 °F 99% 29.82 in 9.0 mi SSE 5.8 mph - N/A   Overcast
10:30 PM 48.2 °F - 48.2 °F 100% 29.78 in 6.0 mi SSE 6.9 mph - N/A Rain Light Rain
10:47 PM 48.2 °F - 48.2 °F 100% 29.79 in 4.0 mi SSE 5.8 mph - N/A Rain Light Rain
10:58 PM 48.6 °F - 48.6 °F 100% 29.79 in 4.0 mi SSE 8.1 mph - 0.04 in Rain Light Rain
11:03 PM 48.2 °F - 48.2 °F 100% 29.77 in 6.0 mi SSE 5.8 mph - N/A   Light Drizzle
11:06 PM 48.2 °F - 48.2 °F 100% 29.76 in 6.0 mi SSE 6.9 mph - N/A   Overcast
11:11 PM 48.2 °F - 48.2 °F 100% 29.76 in 7.0 mi SSE 6.9 mph - N/A   Overcast
11:26 PM 48.2 °F - 48.2 °F 100% 29.75 in 6.0 mi South 5.8 mph - N/A   Overcast
11:28 PM 48.2 °F - 48.2 °F 100% 29.75 in 5.0 mi SSE 5.8 mph - N/A   Light Drizzle
11:33 PM 48.2 °F - 48.2 °F 100% 29.75 in 4.0 mi South 5.8 mph - N/A Rain Light Rain
11:58 PM 49.6 °F - 49.6 °F 100% 29.81 in 3.0 mi WNW 26.5 mph 32.2 mph 0.02 in Rain Light Rain